Hourly Weather Otradnoe

Today, 1 August, Sunday

Time Temperature Precipitation Wind Pressure Humidity
00:00 +21°C° 0 mm 2 mps 742 mmHg 71%
01:00 +20°C° 0 mm 2 mps 742 mmHg 74%
02:00 +19°C° 0 mm 2 mps 742 mmHg 77%
03:00 +19°C° 0 mm 2 mps 743 mmHg 79%
04:00 +19°C° 0 mm 2 mps 743 mmHg 78%
05:00 +19°C° 0 mm 2 mps 743 mmHg 77%
06:00 +20°C° 0 mm 2 mps 744 mmHg 76%
07:00 +21°C° 0 mm 2 mps 744 mmHg 67%
08:00 +24°C° 0 mm 3 mps 744 mmHg 58%
09:00 +26°C° 0 mm 3 mps 745 mmHg 49%
10:00 +27°C° 0 mm 3 mps 745 mmHg 46%
11:00 +28°C° 0 mm 3 mps 745 mmHg 42%
12:00 +28°C° 0 mm 4 mps 745 mmHg 39%
13:00 +29°C° 0 mm 4 mps 745 mmHg 38%
14:00 +29°C° 0 mm 3 mps 745 mmHg 38%
15:00 +30°C° 0 mm 3 mps 745 mmHg 37%
16:00 +29°C° 0 mm 3 mps 745 mmHg 43%
17:00 +28°C° 0 mm 2 mps 745 mmHg 49%
18:00 +27°C° 0 mm 1 mps 745 mmHg 55%
19:00 +25°C° 0 mm 1 mps 745 mmHg 57%
20:00 +24°C° 0 mm 1 mps 745 mmHg 59%
21:00 +20°C° 0 mm 0 mps 745 mmHg 62%
22:00 +19°C° 0 mm 0 mps 745 mmHg 63%
23:00 +21°C° 0 mm 1 mps 745 mmHg 65%

Tomorrow, 2 August, Monday

Time Temperature Precipitation Wind Pressure Humidity
00:00 +20°C° 0 mm 1 mps 745 mmHg 66%
01:00 +20°C° 0 mm 1 mps 745 mmHg 68%
02:00 +20°C° 0 mm 1 mps 745 mmHg 70%
03:00 +18°C° 0 mm 2 mps 745 mmHg 72%
04:00 +19°C° 0 mm 2 mps 745 mmHg 72%
05:00 +20°C° 0 mm 2 mps 745 mmHg 72%
06:00 +21°C° 0 mm 1 mps 746 mmHg 72%
07:00 +24°C° 0 mm 2 mps 746 mmHg 65%
08:00 +26°C° 0 mm 2 mps 746 mmHg 58%
09:00 +28°C° 0 mm 3 mps 746 mmHg 51%
10:00 +30°C° 0 mm 3 mps 746 mmHg 46%
11:00 +31°C° 0 mm 3 mps 745 mmHg 41%
12:00 +34°C° 0 mm 4 mps 745 mmHg 36%
13:00 +34°C° 0 mm 3 mps 745 mmHg 35%
14:00 +34°C° 0 mm 3 mps 745 mmHg 34%
15:00 +35°C° 0 mm 3 mps 744 mmHg 32%
16:00 +34°C° 0 mm 3 mps 744 mmHg 37%
17:00 +32°C° 0 mm 2 mps 744 mmHg 41%
18:00 +31°C° 0 mm 1 mps 743 mmHg 46%
19:00 +29°C° 0.2 mm 2 mps 743 mmHg 53%
20:00 +26°C° 0.2 mm 2 mps 743 mmHg 61%
21:00 +24°C° 0.2 mm 2 mps 743 mmHg 68%
22:00 +23°C° 0 mm 2 mps 743 mmHg 70%
23:00 +22°C° 0 mm 3 mps 743 mmHg 72%

Day after tomorrow, 3 August, Tuesday

Time Temperature Precipitation Wind Pressure Humidity
00:00 +21°C° 0 mm 3 mps 742 mmHg 74%
01:00 +21°C° 0 mm 3 mps 742 mmHg 71%
02:00 +22°C° 0 mm 4 mps 742 mmHg 69%
03:00 +22°C° 0 mm 5 mps 742 mmHg 66%
04:00 +22°C° 0 mm 4 mps 742 mmHg 65%
05:00 +22°C° 0 mm 3 mps 742 mmHg 64%
06:00 +24°C° 0 mm 2 mps 742 mmHg 64%
07:00 +26°C° 0 mm 3 mps 742 mmHg 56%
08:00 +28°C° 0 mm 3 mps 742 mmHg 48%
09:00 +32°C° 0 mm 4 mps 742 mmHg 40%
10:00 +33°C° 0 mm 4 mps 742 mmHg 38%
11:00 +34°C° 0 mm 4 mps 742 mmHg 36%
12:00 +35°C° 0 mm 4 mps 742 mmHg 34%
13:00 +35°C° 0 mm 5 mps 742 mmHg 35%
14:00 +35°C° 0 mm 5 mps 742 mmHg 36%
15:00 +35°C° 0 mm 6 mps 741 mmHg 37%
16:00 +32°C° 0.2 mm 4 mps 741 mmHg 49%
17:00 +29°C° 0.2 mm 2 mps 741 mmHg 61%
18:00 +26°C° 0.2 mm 1 mps 741 mmHg 72%
19:00 +25°C° 0 mm 1 mps 742 mmHg 74%
20:00 +24°C° 0 mm 1 mps 742 mmHg 77%
21:00 +22°C° 0 mm 1 mps 742 mmHg 79%
22:00 +22°C° 0.7 mm 1 mps 742 mmHg 81%
23:00 +22°C° 0.7 mm 1 mps 742 mmHg 84%

4 August, Wednesday

Time Temperature Precipitation Wind Pressure Humidity
00:00 +21°C° 0.7 mm 1 mps 742 mmHg 87%
01:00 +21°C° 4.8 mm 1 mps 742 mmHg 90%
02:00 +21°C° 4.8 mm 1 mps 742 mmHg 93%
03:00 +19°C° 4.8 mm 2 mps 742 mmHg 95%
04:00 +19°C° 0.2 mm 2 mps 743 mmHg 95%
05:00 +19°C° 0.2 mm 2 mps 743 mmHg 94%
06:00 +19°C° 0.2 mm 2 mps 743 mmHg 94%
07:00 +20°C° 0.1 mm 2 mps 744 mmHg 91%
08:00 +20°C° 0.1 mm 2 mps 744 mmHg 89%
09:00 +21°C° 0.1 mm 2 mps 744 mmHg 86%
10:00 +23°C° 0.1 mm 2 mps 744 mmHg 80%
11:00 +24°C° 0.1 mm 3 mps 744 mmHg 75%
12:00 +25°C° 0.1 mm 3 mps 744 mmHg 69%
13:00 +25°C° 0.2 mm 3 mps 745 mmHg 65%
14:00 +25°C° 0.2 mm 3 mps 745 mmHg 62%
15:00 +25°C° 0.2 mm 3 mps 745 mmHg 58%
16:00 +25°C° 0 mm 3 mps 745 mmHg 59%
17:00 +25°C° 0 mm 3 mps 745 mmHg 60%
18:00 +24°C° 0 mm 3 mps 745 mmHg 61%
19:00 +23°C° 0 mm 2 mps 746 mmHg 62%
20:00 +21°C° 0 mm 2 mps 746 mmHg 63%
21:00 +21°C° 0 mm 2 mps 746 mmHg 65%
22:00 +20°C° 0 mm 2 mps 746 mmHg 63%
23:00 +20°C° 0 mm 2 mps 746 mmHg 62%

5 August, Thursday

Time Temperature Precipitation Wind Pressure Humidity
00:00 +20°C° 0 mm 2 mps 747 mmHg 60%
01:00 +20°C° 0 mm 2 mps 747 mmHg 60%
02:00 +19°C° 0 mm 2 mps 747 mmHg 61%
03:00 +19°C° 0 mm 2 mps 747 mmHg 61%
04:00 +19°C° 0 mm 2 mps 747 mmHg 63%
05:00 +20°C° 0 mm 1 mps 747 mmHg 64%
06:00 +20°C° 0 mm 1 mps 747 mmHg 66%
07:00 +20°C° 0 mm 2 mps 748 mmHg 61%
08:00 +21°C° 0 mm 2 mps 748 mmHg 57%
09:00 +23°C° 0 mm 2 mps 748 mmHg 52%
10:00 +24°C° 0 mm 3 mps 748 mmHg 48%
11:00 +25°C° 0 mm 3 mps 748 mmHg 44%
12:00 +26°C° 0 mm 3 mps 748 mmHg 40%
13:00 +26°C° 0 mm 3 mps 748 mmHg 39%
14:00 +27°C° 0 mm 4 mps 748 mmHg 38%
15:00 +27°C° 0 mm 4 mps 748 mmHg 37%
16:00 +26°C° 0 mm 3 mps 748 mmHg 42%
17:00 +25°C° 0 mm 3 mps 748 mmHg 47%
18:00 +24°C° 0 mm 2 mps 748 mmHg 52%
19:00 +23°C° 0 mm 2 mps 748 mmHg 56%
20:00 +20°C° 0 mm 2 mps 748 mmHg 60%
21:00 +19°C° 0 mm 1 mps 748 mmHg 63%
22:00 +18°C° 0 mm 1 mps 748 mmHg 64%
23:00 +16°C° 0 mm 1 mps 748 mmHg 65%

6 August, Friday

Time Temperature Precipitation Wind Pressure Humidity
00:00 +16°C° 0 mm 1 mps 748 mmHg 65%
01:00 +15°C° 0 mm 1 mps 748 mmHg 64%
02:00 +15°C° 0 mm 1 mps 748 mmHg 63%
03:00 +15°C° 0 mm 1 mps 749 mmHg 62%
04:00 +15°C° 0 mm 1 mps 749 mmHg 61%
05:00 +16°C° 0 mm 1 mps 749 mmHg 61%
06:00 +18°C° 0 mm 1 mps 749 mmHg 60%
07:00 +19°C° 0 mm 1 mps 749 mmHg 54%
08:00 +21°C° 0 mm 1 mps 749 mmHg 48%
09:00 +23°C° 0 mm 2 mps 750 mmHg 42%
10:00 +24°C° 0 mm 2 mps 749 mmHg 39%
11:00 +25°C° 0 mm 1 mps 749 mmHg 37%
12:00 +26°C° 0 mm 1 mps 749 mmHg 35%
13:00 +27°C° 0 mm 1 mps 749 mmHg 35%
14:00 +27°C° 0 mm 1 mps 749 mmHg 35%
15:00 +27°C° 0 mm 1 mps 749 mmHg 35%
16:00 +27°C° 0 mm 1 mps 748 mmHg 40%
17:00 +26°C° 0 mm 1 mps 748 mmHg 45%
18:00 +25°C° 0 mm 1 mps 748 mmHg 50%
19:00 +24°C° 0 mm 1 mps 748 mmHg 51%
20:00 +21°C° 0 mm 2 mps 748 mmHg 52%
21:00 +19°C° 0 mm 2 mps 748 mmHg 54%
22:00 +18°C° 0 mm 2 mps 748 mmHg 53%
23:00 +18°C° 0 mm 2 mps 748 mmHg 53%
Show more